Location: Unspecified
(51.0000°N, 12.0000°E)
Time: 17:31:13
(UTC+02:00)

ISS - Pass Details

Date: 14 March 2018
Orbit: 402 x 408 km, 51.6° (Epoch: 23 June)

Event Time Altitude Azimuth Distance (km) Brightness Sun altitude
Exits shadow 03:55:10 35° 86° (E) 690 -2.2 -24.2°
Drops below altitude 10° 03:57:13 10° 92° (E) 1,480 -0.2 -23.9°
Enters shadow 04:53:29 -68° 287° (WNW) 12,280 3.6 -15.7°
